Overview Statistics Trail Chart Weather Telemetry Raw packets
 

This is the latest recevied weather packets stored in our database for station/object NR0A-4. If no packets are shown the sender has not sent any weather packets the latest 10 day(s).

<< 98 99 100 101 102 103 104 >>
Time Temp. Humidity Pressure Rain* Wind** Luminosity Snow
1787925004 20° C 78% 1019.8 hPa 0 mm - 58 W/m² -
1787924705 20° C 79% 1019.7 hPa 0 mm - 51 W/m² -
1787924404 20° C 79% 1019.8 hPa 0 mm - 49 W/m² -
1787924105 19.44° C 79% 1019.7 hPa 0 mm - 46 W/m² -
1787923805 19.44° C 79% 1019.6 hPa 0 mm - 46 W/m² -
1787923504 19.44° C 80% 1019.6 hPa 0 mm - 40 W/m² -
1787923205 18.89° C 80% 1019.5 hPa 0 mm - 39 W/m² -
1787922905 18.89° C 81% 1019.6 hPa 0 mm - 44 W/m² -
1787922604 18.89° C 81% 1019.6 hPa 0 mm - 37 W/m² -
1787922305 18.89° C 82% 1019.7 hPa 0 mm - 35 W/m² -
1787922004 18.33° C 82% 1019.7 hPa 0 mm - 33 W/m² -
1787921705 18.33° C 83% 1019.8 hPa 0 mm - 32 W/m² -
1787921404 18.33° C 83% 1019.7 hPa 0 mm - 30 W/m² -
1787921105 18.33° C 83% 1019.7 hPa 0 mm - 28 W/m² -
1787920804 18.33° C 83% 1019.8 hPa 0 mm - 25 W/m² -
1787920505 18.33° C 83% 1019.7 hPa 0 mm - 23 W/m² -
1787920204 17.78° C 84% 1019.6 hPa 0 mm - 21 W/m² -
1787919904 17.78° C 84% 1019.6 hPa 0 mm - 19 W/m² -
1787919605 17.78° C 84% 1019.6 hPa 0 mm - 18 W/m² -
1787919304 17.78° C 84% 1019.5 hPa 0 mm - 14 W/m² -
1787919004 17.78° C 83% 1019.5 hPa 0 mm - 11 W/m² -
1787918705 17.78° C 83% 1019.5 hPa 0 mm - 9 W/m² -
1787918414 18.33° C 83% 1019.3 hPa 0 mm - 7 W/m² -
1787918105 18.33° C 83% 1019.2 hPa 0 mm - 0 W/m² -
1787917804 18.33° C 83% 1019.3 hPa 0 mm - 0 W/m² -

* Rain latest hour (hover to see other rain measurements)
** Current wind speed in m/s (hover to see current wind gust speed)